Date String (YYYY-MM-DD hh:mm:ss) UTC,Instrument flags,Ambient pressure (hPa),Sample flow (lpm),Bypass flow (lpm),Sample temperature (°C),Ambient temperature (°C),ASC tube jacket temperature (°C),LED temperature (°C),Box temperature (°C),Sample RH (%),Span deviation,Mass concentration (μg/m³),Mass concentration (μg/m³),Mass concentration (μg/m³)
DateTimeUTC,F1_M11,P_M11,Q1_M11,Q2_M11,T1_M11,T2_M11,T3_M11,T4_M11,T5_M11,U1_M11,ZSPAN_M11,X0_M11,X2_M11,X1_M11
2023-05-07 04:00:00,,0827.1,4.99,0.00,30.2,28.5,00.0,38.7,31.6,07.5,0000.0,0008.59,0003.28,0001.91
2023-05-07 04:01:00,,0827.2,5.00,0.00,30.2,28.5,00.0,38.7,31.5,08.0,0000.0,0008.13,0003.25,0001.89
2023-05-07 04:02:00,,0827.1,5.00,0.00,30.2,28.5,00.0,38.7,31.5,08.2,0000.0,0007.22,0003.24,0001.88
2023-05-07 04:03:00,,0827.1,5.01,0.00,30.2,28.5,00.0,38.7,31.5,08.0,0000.0,0006.98,0003.21,0001.85
2023-05-07 04:04:00,,0827.1,5.00,0.00,30.2,28.5,00.0,38.7,31.5,07.9,0000.0,0006.82,0003.17,0001.82
2023-05-07 04:05:00,,0827.1,5.01,0.00,30.2,28.5,00.0,38.7,31.5,07.8,0000.0,0006.82,0003.15,0001.81
2023-05-07 04:06:00,,0827.1,5.00,0.00,30.2,28.5,00.0,38.7,31.5,07.7,0000.0,0007.77,0003.12,0001.80
2023-05-07 04:07:00,,0827.1,5.00,0.00,30.2,28.5,00.0,38.7,31.5,07.8,0000.0,0007.86,0003.10,0001.76
2023-05-07 04:08:00,,0827.0,5.01,0.00,30.2,28.5,00.0,38.6,31.5,07.8,0000.0,0007.81,0003.07,0001.74
2023-05-07 04:09:00,,0827.1,5.00,0.00,30.2,28.5,00.0,38.6,31.5,07.9,0000.0,0007.87,0003.03,0001.74
2023-05-07 04:10:00,,0827.1,4.99,0.00,30.2,28.5,00.0,38.6,31.5,07.9,0000.0,0007.96,0003.00,0001.74
2023-05-07 04:11:00,,0827.0,5.00,0.00,30.2,28.5,00.0,38.6,31.5,07.9,0000.0,0007.94,0002.93,0001.76
2023-05-07 04:12:00,,0827.1,5.01,0.00,30.2,28.5,00.0,38.6,31.5,07.9,0000.0,0008.41,0002.91,0001.75
2023-05-07 04:13:00,,0827.0,4.99,0.00,30.2,28.5,00.0,38.6,31.5,08.0,0000.0,0008.66,0002.88,0001.74
2023-05-07 04:14:00,,0827.0,4.99,0.00,30.2,28.5,00.0,38.6,31.5,08.0,0000.0,0009.33,0002.91,0001.73
2023-05-07 04:15:00,,0827.0,4.99,0.00,30.2,28.6,00.0,38.6,31.6,08.0,0000.0,0009.47,0002.94,0001.71
2023-05-07 04:16:00,,0827.0,5.01,0.00,30.2,28.6,00.0,38.6,31.6,08.1,0000.0,0009.52,0002.96,0001.70
2023-05-07 04:17:00,,0827.0,5.01,0.00,30.2,28.6,00.0,38.6,31.6,08.0,0000.0,0008.64,0002.99,0001.69
2023-05-07 04:18:00,,0827.0,4.99,0.00,30.2,28.6,00.0,38.6,31.7,07.9,0000.0,0008.78,0003.07,0001.69
2023-05-07 04:19:00,,0827.0,4.99,0.00,30.2,28.6,00.0,38.6,31.6,07.8,0000.0,0008.90,0003.02,0001.69
2023-05-07 04:20:00,,0827.0,5.01,0.00,30.2,28.6,00.0,38.6,31.6,07.8,0000.0,0008.91,0002.99,0001.66
2023-05-07 04:21:00,,0827.0,5.01,0.00,30.2,28.5,00.0,38.6,31.6,07.8,0000.0,0008.96,0002.95,0001.65
2023-05-07 04:22:00,,0827.0,4.99,0.00,30.2,28.5,00.0,38.6,31.5,07.7,0000.0,0008.85,0002.97,0001.64
2023-05-07 04:23:00,,0827.0,5.00,0.00,30.2,28.5,00.0,38.6,31.5,07.9,0000.0,0008.48,0002.99,0001.63
2023-05-07 04:24:00,,0827.0,5.01,0.00,30.2,28.5,00.0,38.6,31.6,07.8,0000.0,0008.20,0002.97,0001.62
2023-05-07 04:25:00,,0827.0,5.00,0.00,30.2,28.5,00.0,38.6,31.6,07.8,0000.0,0008.22,0002.94,0001.62
2023-05-07 04:26:00,,0827.0,5.00,0.00,30.2,28.5,00.0,38.6,31.6,07.8,0000.0,0008.15,0002.96,0001.62
2023-05-07 04:27:00,,0827.0,4.99,0.00,30.2,28.5,00.0,38.6,31.6,07.8,0000.0,0008.14,0002.98,0001.62
2023-05-07 04:28:00,,0827.0,4.99,0.00,30.2,28.5,00.0,38.6,31.5,07.8,0000.0,0008.67,0003.02,0001.62
2023-05-07 04:29:00,,0827.0,5.00,0.00,30.2,28.5,00.0,38.6,31.6,07.8,0000.0,0008.48,0002.98,0001.63
2023-05-07 04:30:00,,0827.0,5.02,0.00,30.2,28.5,00.0,38.6,31.5,07.8,0000.0,0008.26,0002.98,0001.62
2023-05-07 04:31:00,,0827.0,4.99,0.00,30.2,28.5,00.0,38.6,31.5,07.8,0000.0,0008.24,0003.05,0001.61
2023-05-07 04:32:00,,0827.1,5.00,0.00,30.2,28.5,00.0,38.6,31.5,07.7,0000.0,0008.89,0003.13,0001.61
2023-05-07 04:33:00,,0827.0,5.02,0.00,30.2,28.5,00.0,38.6,31.6,07.7,0000.0,0008.86,0003.12,0001.61
2023-05-07 04:34:00,,0827.0,5.00,0.00,30.2,28.5,00.0,38.6,31.5,07.8,0000.0,0009.15,0003.08,0001.60
2023-05-07 04:35:00,,0827.0,5.00,0.00,30.2,28.5,00.0,38.6,31.5,07.6,0000.0,0009.35,0003.08,0001.59
2023-05-07 04:36:00,,0827.1,5.00,0.00,30.2,28.5,00.0,38.6,31.6,07.8,0000.0,0008.58,0003.04,0001.59
2023-05-07 04:37:00,,0827.1,5.00,0.00,30.2,28.5,00.0,38.6,31.5,07.7,0000.0,0008.57,0003.02,0001.58
2023-05-07 04:38:00,,0827.0,5.00,0.00,30.2,28.5,00.0,38.6,31.5,07.7,0000.0,0008.90,0003.02,0001.57
2023-05-07 04:39:00,,0827.1,4.99,0.00,30.2,28.5,00.0,38.6,31.5,07.8,0000.0,0008.95,0002.92,0001.56
2023-05-07 04:40:00,,0827.0,5.01,0.00,30.2,28.5,00.0,38.6,31.5,07.8,0000.0,0008.85,0002.86,0001.55
2023-05-07 04:41:00,,0827.0,5.01,0.00,30.2,28.5,00.0,38.6,31.5,07.8,0000.0,0008.91,0002.89,0001.55
2023-05-07 04:42:00,,0827.0,5.00,0.00,30.2,28.4,00.0,38.6,31.4,07.9,0000.0,0008.81,0002.87,0001.56
2023-05-07 04:43:00,,0827.0,5.00,0.00,30.1,28.4,00.0,38.5,31.4,07.9,0000.0,0008.22,0002.78,0001.55
2023-05-07 04:44:00,,0827.0,4.99,0.00,30.1,28.4,00.0,38.5,31.4,07.9,0000.0,0008.65,0002.80,0001.55
2023-05-07 04:45:00,,0827.0,5.01,0.00,30.1,28.4,00.0,38.5,31.5,07.8,0000.0,0008.43,0002.88,0001.55
2023-05-07 04:46:00,,0826.9,5.01,0.00,30.1,28.3,00.0,38.5,31.4,07.8,0000.0,0008.30,0002.89,0001.55
2023-05-07 04:47:00,,0826.9,4.99,0.00,30.1,28.3,00.0,38.5,31.4,07.9,0000.0,0008.45,0002.87,0001.53
2023-05-07 04:48:00,,0826.9,4.99,0.00,30.1,28.3,00.0,38.5,31.4,07.9,0000.0,0008.39,0002.84,0001.52
2023-05-07 04:49:00,,0827.0,5.01,0.00,30.1,28.2,00.0,38.5,31.4,07.9,0000.0,0008.07,0002.84,0001.52
2023-05-07 04:50:00,,0826.9,5.00,0.00,30.1,28.2,00.0,38.5,31.4,07.9,0000.0,0007.63,0002.95,0001.53
2023-05-07 04:51:00,,0827.0,5.00,0.00,30.1,28.2,00.0,38.5,31.3,07.8,0000.0,0007.75,0003.00,0001.53
2023-05-07 04:52:00,,0827.0,4.99,0.00,30.1,28.2,00.0,38.5,31.3,07.9,0000.0,0007.70,0002.98,0001.53
2023-05-07 04:53:00,,0826.9,5.00,0.00,30.0,28.2,00.0,38.5,31.3,07.9,0000.0,0007.69,0002.94,0001.52
2023-05-07 04:54:00,,0826.9,5.01,0.00,30.0,28.2,00.0,38.5,31.4,07.9,0000.0,0007.20,0002.86,0001.51
2023-05-07 04:55:00,,0826.9,5.00,0.00,30.0,28.2,00.0,38.5,31.3,07.9,0000.0,0006.59,0002.87,0001.50
2023-05-07 04:56:00,,0826.9,4.99,0.00,30.0,28.2,00.0,38.5,31.3,07.8,0000.0,0006.28,0002.79,0001.51
2023-05-07 04:57:00,,0826.9,5.00,0.00,30.0,28.2,00.0,38.5,31.3,07.7,0000.0,0005.92,0002.74,0001.51
2023-05-07 04:58:00,,0826.9,5.00,0.00,30.0,28.2,00.0,38.4,31.3,07.6,0000.0,0005.33,0002.70,0001.50
2023-05-07 04:59:00,,0826.9,5.00,0.00,30.0,28.2,00.0,38.4,31.3,07.6,0000.0,0005.46,0002.72,0001.52
